Starlink 32920

operational
NORAD ID: 62925 Int'l Des: 2025-027 Owner: SPXS Country: US Constellation: starlink
LEOCIRCULAR

Starlink 32920について

説明を読み込み中...

リアルタイム位置

3D地球を読み込み中...

次回通過

高度履歴

Altitude vs Time

uPlot chart will show altitude changes over time

軌道要素

1 62925U 25027U 26034.17075605 .00038475 00000-0 13997-2 0 9994
2 62925 43.0002 323.7628 0000700 250.0549 110.0227 15.27597380 56267
Epoch: Feb 3, 2026 • Age: 22 hours

現在のステータス

高度 485.9 km
速度 7.63 km/s
衛星直下点 41.33°N, 103.36°W
打ち上げ日 Feb 8, 2025
運用期間 0.9 years
タイプ internet

技術仕様

分類 Payload
質量 730.00 kg
乾燥質量 700.00 kg
総質量 730.00 kg
長さ 0.30 m
直径 4.10 m
スパン 29.00 m
形状 Box + pan
製造者 SPXS
バスタイプ Starlink V2M
フェーズステータス In Orbit
所有者/国 SPXS/US

大規模コンステレーション

Loading constellations...